Location: *
(42.0175°N, 9.4056°E)
Time: 00:04:01
(UTC+00:00)

Cosmos 1980 Rocket - Pass Details

Date: 25 August 2019
Orbit: 829 x 850 km, 71.0° (Epoch: 19 September)

Event Time Altitude Azimuth Distance (km) Brightness Sun altitude
Rises 21:42:17 0° 325° (NW) 3,395 6.5 -32.4°
Reaches altitude 10° 21:45:01 10° 314° (NW) 2,459 5.4 -32.6°
Enters shadow 21:49:09 28° 268° (W) 1,531 3.7 -33.0°
